Home   Weather   Rimini   Past weeks
Flag for Italy

Past Weather in Rimini, Italy — December 2017

Now
45 °F

Passing clouds.


Feels Like: 45 °F
Forecast: 57 / 48 °F
Wind: 1 mph from North

Location: Rimini Airport

Current Time: Nov 21, 2019 at 12:09:02 am

Latest Report: Nov 20, 2019 at 11:20 pm


Visibility: 0 mi

Pressure: 29.92 "Hg

Humidity: 100%

Dew Point: 45 °F

Location of RiminiLocation

December 2017 Weather in Rimini — Graph

°F

High & Low Weather Summary for December 2017

 TemperatureHumidityPressure
High66 °F (Dec 12, 2:15 am)100% (Dec 5, 7:15 am)30.57 "Hg (Dec 5, 7:15 am)
Low28 °F (Dec 5, 7:15 am)5% (Dec 13, 7:15 am)29.15 "Hg (Dec 28, 4:15 am)
Average43 °F80%30.05 "Hg
* Reported Dec 1 12:15 am — Dec 31 11:45 pm, Rimini. Weather by CustomWeather, © 2019

Note: Actual official high and low records may vary slightly from our data, if they occured in-between our weather recording intervals... More about our weather records

Advertising

Rimini Weather History for December 1, 2017

Scroll right to see more
 ConditionsComfort  
Time TempWeatherWind HumidityBarometerVisibility
12:15 am
Fri, Dec 1
36 °FClear.2 mph93%29.74 "Hg10 mi
12:45 am34 °FClear.No wind93%29.77 "Hg10 mi
1:15 am34 °FClear.No wind93%29.77 "Hg10 mi
1:45 am34 °FClear.No wind93%29.77 "Hg10 mi
3:15 am32 °FClear.1 mph93%29.77 "Hg10 mi
3:45 am32 °FClear.2 mph93%29.77 "Hg10 mi
4:15 am32 °FClear.1 mph93%29.77 "Hg10 mi
4:45 am32 °FClear.No wind93%29.77 "Hg10 mi
5:15 am32 °FClear.5 mph93%29.77 "Hg10 mi
5:45 am32 °FClear.5 mph93%29.77 "Hg10 mi
6:15 am32 °FClear.3 mph93%29.77 "Hg10 mi
6:45 am30 °FClear.No wind93%29.77 "Hg10 mi
7:45 am30 °FSunny.1 mph93%29.80 "Hg10 mi
8:15 am30 °FPassing clouds.1 mph93%29.80 "HgN/A
8:45 am32 °FPassing clouds.No wind93%29.83 "HgN/A
9:15 am36 °FPassing clouds.1 mph93%29.83 "HgN/A
9:45 am41 °FSunny.No wind81%29.83 "Hg10 mi
10:15 am43 °FSunny.1 mph76%29.83 "Hg10 mi
10:45 am43 °FPassing clouds.2 mph76%29.83 "HgN/A
11:15 am45 °FPassing clouds.No wind76%29.83 "HgN/A
11:45 am48 °FPassing clouds.No wind66%29.83 "HgN/A
12:15 pm48 °FPassing clouds.2 mph71%29.83 "HgN/A
12:45 pm48 °FPassing clouds.3 mph71%29.80 "HgN/A
1:15 pm48 °FPassing clouds.3 mph76%29.80 "HgN/A
1:45 pm48 °FPassing clouds.3 mph76%29.80 "HgN/A
2:15 pm48 °FPassing clouds.5 mph76%29.80 "HgN/A
2:45 pm46 °FPassing clouds.5 mph82%29.80 "HgN/A
3:15 pm46 °FPassing clouds.3 mph82%29.80 "HgN/A
3:45 pm46 °FPassing clouds.2 mph82%29.80 "HgN/A
4:15 pm46 °FPassing clouds.3 mph82%29.80 "HgN/A
4:45 pm45 °FPassing clouds.9 mph87%29.83 "HgN/A
5:15 pm43 °FPassing clouds.7 mph87%29.83 "HgN/A
5:45 pm43 °FPassing clouds.8 mph87%29.83 "HgN/A
6:15 pm41 °FPassing clouds.7 mph93%29.86 "HgN/A
6:45 pm41 °FPassing clouds.8 mph93%29.86 "HgN/A
7:15 pm41 °FPassing clouds.9 mph93%29.86 "HgN/A
7:45 pm41 °FPassing clouds.9 mph93%29.86 "HgN/A
8:15 pm41 °FPassing clouds.10 mph93%29.86 "HgN/A
8:45 pm41 °FPassing clouds.10 mph93%29.89 "HgN/A
9:15 pm41 °FPassing clouds.10 mph87%29.89 "HgN/A
9:45 pm41 °FPassing clouds.10 mph87%29.89 "HgN/A
10:15 pm41 °FPassing clouds.9 mph87%29.89 "HgN/A
10:45 pm41 °FPassing clouds.9 mph87%29.89 "HgN/A
11:15 pm41 °FPassing clouds.9 mph87%29.89 "HgN/A
11:45 pm41 °FPartly cloudy.3 mph87%29.89 "HgN/A
Weather by CustomWeather, © 2019

See weather overview